Regional Weather Roundup
Issued by NWS

Home | Current Version | Previous Version | Text Only | Print | Product List | Glossary On
Versions: 1 2 3 4 5 6 7 8 9 10 11 12 13 14 15 16 17 18 19 20 21 22 23 24 25 26 27 28 29 30 31 32 33 34 35 36 37 38 39 40 41 42 43 44 45 46 47 48 49 50
000
ASHW40 PHFO 201932
RWRHI

WEATHER ROUNDUP FOR HAWAII
NATIONAL WEATHER SERVICE HONOLULU HI
900 AM HST THU JUL 20 2017

THIS IS AN AUTOMATED REPORT THAT HAS NOT BEEN QUALITY CONTROLLED.

NOTE..."FAIR" INDICATES FEW OR NO CLOUDS BELOW 12,000 FEET WITH NO
SIGNIFICANT WEATHER AND/OR OBSTRUCTIONS TO VISIBILITY.

* - THESE SITES REPORT LIMITED FIELDS
# - BUOY DATA PROVIDED BY PACIFIC ISLANDS OCEAN OBSERVING SYSTEM.

HIZ001>004-202000-
KAUAI-NIIHAU-

CITY           SKY/WX    TMP DP  RH WIND       PRES   REMARKS
LIHUE APT      MOSUNNY   84  74  71 NE16      30.13R HX  91
PORT ALLEN*      N/A     82 N/A N/A NE21G30     N/A
POIPU*           N/A     82 N/A N/A NE10G21     N/A
PRINCEVILLE*     N/A     81 N/A N/A E12G21      N/A
KOKOLE POINT*  NOT AVBL
MOLOAA DAIRY*    N/A     82  72  69 E6G13       N/A
WAIMEA HTS*    NOT AVBL
PUU OPAE*      NOT AVBL
PUU LUA*       NOT AVBL
MAKAHA RIDGE*    N/A     77  63  61 W1G8        N/A
$$

HIZ005>011-202000-
OAHU-

CITY           SKY/WX    TMP DP  RH WIND       PRES   REMARKS
HONOLULU       MOSUNNY   83  70  64 E16       30.08S
KALAELOA       SUNNY     85  67  54 NE13G21   30.09S
KANEOHE MCB    NOT AVBL
WHEELER FIELD  PTSUNNY   79  68  69 E13       30.10S
BELLOWS*         N/A    N/A N/A N/A NE20        N/A
KAHUKU*          N/A    N/A N/A N/A NE13G20     N/A
WHEELER*       NOT AVBL
WAIANAE HARBOR NOT AVBL
DILLINGHAM*      N/A     84  70  61 SW8G14      N/A
KAHUKU TRN*      N/A     88  79  74 W9G30       N/A  HX 102
KAWAILOA*        N/A     73  66  78 E10G25      N/A
KII*             N/A     81  72  74 CALM        N/A
MAKUA RANGE*     N/A     79  57  47 NW12G24     N/A
OAHU FOREST NW NOT AVBL
SCHOFIELD BRK*   N/A     73  64  73 MISG        N/A
SCHOFIELD S*   NOT AVBL
WAIANAE VLY*   NOT AVBL
KUAOKALA*      NOT AVBL
HONOULIUULI*   NOT AVBL
MOKUOLOE IS*   NOT AVBL
PALEHUA*       NOT AVBL
WAIAWA PHB*    NOT AVBL
$$

HIZ012>013-202000-
MOLOKAI-

CITY           SKY/WX    TMP DP  RH WIND       PRES   REMARKS
MOLOKAI AIRPT  SUNNY     86  68  54 NE17G28   30.09R
KALAUPAPA      NOT AVBL
MAKAPULAPAI*     N/A     82  68  61 E24G32      N/A
MOLOKAI 1*     NOT AVBL
PUU ALII*        N/A     62  61  97 NE3G18      N/A
$$

HIZ016-202000-
KAHOOLAWE-

CITY           SKY/WX    TMP DP  RH WIND       PRES   REMARKS
KAHOOLAWE*     NOT AVBL
HAKIOAWA*        N/A     80  67  63 MISG        N/A
HONOKANAIA*      N/A     82  68  62 NE17G36   30.01R
KANELOA*         N/A     77  68  73 E25G40    30.13R
KEALIALALO*    NOT AVBL
LUA MAKIKA*    NOT AVBL
$$

HIZ014>015-202000-
LANAI-

CITY           SKY/WX    TMP DP  RH WIND       PRES   REMARKS
LANAI CITY     FAIR      76  68  76 N10       30.14R
LANAI 1*       NOT AVBL
$$

HIZ017>028-202000-
MAUI-

CITY           SKY/WX    TMP DP  RH WIND       PRES   REMARKS
KAHULUI        MOSUNNY   84  65  52 NE20G30   30.08R
KAPALUA-W MAUI MOSUNNY   82  64  54 E15G26    30.09S
HANA AIRPORT   PTSUNNY   82  72  69 E7        30.15S
HANA*            N/A     81 N/A N/A E7G13       N/A
HALEAKALA SUMM   N/A     50  25  37 NE14G25     N/A
MAALAEA BAY*     N/A     84 N/A N/A N18G28      N/A
HALEAKALA*     NOT AVBL
KAUPO GAP*     NOT AVBL
KULA 1*          N/A     61  57  86 NW3         N/A
$$

HIZ023>026-202000-
BIG ISLAND OF HAWAII COAST AND LOWER SLOPES-

CITY           SKY/WX    TMP DP  RH WIND       PRES   REMARKS
KAILUA KONA    MOSUNNY   79  70  74 SE13      30.05R
HILO           MOSUNNY   80  69  69 VRB6      30.12R
HONOKAA*         N/A     79 N/A N/A VRB1        N/A
KAWAIHAE MWT*    N/A     82 N/A N/A W12         N/A
KAWAIHAE*        N/A     81 N/A N/A W12       30.04R
SOUTH POINT*     N/A     77 N/A N/A N23G33      N/A
UPOLU AIRPORT* NOT AVBL
KAMUELA*       NOT AVBL
HAKALAU*         N/A     60  48  65 SE3         N/A
KALOKO-HONOKO*   N/A     79  72  78 SE7       30.05R
PALI 2*          N/A     73  57  56 S20G28      N/A
KEALAKOMO*       N/A     84  63  48 VRB18G26    N/A
KAUPULEHU*     NOT AVBL
KAPAPALA*        N/A     80  64  56 E5          N/A
LOWER KAHUKU*    N/A     66  61  82 NE3G14      N/A
PUHE CS*         N/A     82  63  51 W8          N/A
PUHO CS*         N/A     76  68  76 E2G8        N/A
PTA KEAMUKU*   NOT AVBL
WAIKOLOA*      NOT AVBL
$$

HIZ027>028-202000-
BIG ISLAND OF HAWAII INTERIOR AND SUMMMITS-

CITY           SKY/WX    TMP DP  RH WIND       PRES   REMARKS
BRADSHAW FIELD MOSUNNY   65  44  46 S13G21    30.38S
MK VISITOR CEN   N/A     57  16  19 S10         N/A
MAUNA KEA*       N/A     46  -8  10 NE7         N/A
MAUNA LOA*       N/A     50  36  57 MISG        N/A
MAUNA LOA 1*   NOT AVBL
PTA KIPUKA*      N/A     52  39  62 NW5G12      N/A
PTA RANGE 17*    N/A     64  43  45 SE17G26     N/A
PTA WEST*        N/A     72  45  37 E12G23      N/A
NENE CABIN*      N/A     55  41  58 E10G21      N/A
AHUMOA*        NOT AVBL
PTA PORTABLE*  NOT AVBL
PUU MALI*        N/A     70  46  43 NW7         N/A
$$

HIC003-202000-
NORTHWEST ISLANDS-

CITY           SKY/WX    TMP DP  RH WIND       PRES   REMARKS
MIDWAY ISLAND  CLOUDY    75  72  88 E24       30.07S
MIDWAY NOS*      N/A     77 N/A N/A MISG      30.06R
FRENCH FRIGATE NOT AVBL
$$

PHZ110>124-180-202000-
BUOY REPORTS

STATION/POSITION TIME  TEMP    WIND        PRES    WAVE   SWELL
                       AIR SEA DIR/SP/G            HT/PER HT/DIR
                 (UTC) (F)     (DEG/KT/KT) (MB)    (FT/S) (FT/D)
BUOY 51001       1910   80 81   90/ 16/ 19 1020.8
BUOY 51101       1850   80 81   80/ 16/ 21 1021.0R   7/ 8   3/140
BUOY 51100       NOT AVBL
BUOY 51002       1910   80 80   80/ 16/ 17 1016.8
BUOY 51003       1850   80 81  100/ 10/ 12 1017.3R   5/ 8   5/ 60
BUOY 51004       1850      79   40/ 19/ 23 1017.0R   7/ 8   3/120
WAIMEA BAY#      1902      78                N/A     5/ 8
MOKAPU POINT#    1904      80                N/A     7/ 8   2/ 90
LANAI#           NOT AVBL
BARBERS PT 2#    NOT AVBL
PAUWELA#         1909      79                N/A     7/ 8   2/ 90
HILO#            1857      80                N/A     7/13   3/100
KANEOHE BAY#     1855      79                N/A     7/ 8
KANEOHE BAY 2#   NOT AVBL
HANALEI#         1852      80                N/A     6/ 8   2/ 90
KAHULUI HARBOR   1900   80 80   50/ 16/ 21 1018.9
HONOLULU HARBOR  1900   80 81   70/  5/ 12 1019.6
PEARL HARBOR#    1900      81                N/A     3/ 6   2/160
KILO NALU        NOT AVBL
HILO HARBOR      1900   80 79  320/  3/  4 1019.7
MOKUOLOE         1836   82 82  100/ 13/ 18 1019.5R
NAWILIWILI       1900   80      50/ 11/ 16 1019.7
WHOTS BUOY       NOT AVBL
BUOY 51028       NOT AVBL
$$

......................KEY........................................
  SKY/WX - SKY CONDITIONS/PRESENT WEATHER
  TMP    - TEMPERATURE IN FAHRENHEIT
  DWPT   - DEWPOINT IN FAHRENHEIT
  RH     - RELATIVE HUMIDITY IN PERCENT
  WIND   - DIRECTION AND SPEED /MPH FOR ISLANDS...KTS FOR BUOYS/
  PRES   - MEAN SEA LEVEL PRESSURE IN INCHES OF HG
  VSB    - VISIBILITY IN MILES
  HX     - HEAT INDEX
  WCI    - WIND CHILL INDEX
  VRB    - VARIABLE WIND DIRECTION
  N/A    - NOT AVAILABLE




USA.gov is the U.S. government's official web portal to all federal, state and local government web resources and services.